Regional Weather Roundup
Issued by NWS

Home | Current Version | Previous Version | Text Only | Print | Product List | Glossary On
Versions: 1 2 3 4 5 6 7 8 9 10 11 12 13 14 15 16 17 18 19 20 21 22 23 24 25 26 27 28 29 30 31 32 33 34 35 36 37 38 39 40 41 42 43 44 45 46 47 48 49 50
000
ASUS43 KMKX 241200
RWRWI

WISCONSIN REGIONAL WEATHER ROUNDUP
NATIONAL WEATHER SERVICE MILWAUKEE/SULLIVAN WI
700 AM CDT THU APR 24 2014

NOTE: "FAIR" INDICATES FEW OR NO CLOUDS BELOW 12,000 FEET WITH NO
SIGNIFICANT WEATHER AND/OR OBSTRUCTIONS TO VISIBILITY.

WIZ001-002-006>008-014>016-023>028-241300-
NORTHWEST WISCONSIN

CITY           SKY/WX    TMP DP  RH WIND       PRES   REMARKS
SUPERIOR ARPT  CLOUDY    34  34  99 NE8       29.96F FOG     WCI  28
ASHLAND        CLOUDY    36  35  96 NE5       30.00F WCI  32
6HR MIN TEMP:  36; 6HR MAX TEMP:  39; 6HR PCP:  0.22;

HAYWARD        LGT RAIN  35  32  88 E13G18    29.95S FOG     WCI  26
6HR MIN TEMP:  35; 6HR MAX TEMP:  37; 6HR PCP:  0.07;

SIREN          DRIZZLE   38  37  94 SE10G20   29.89F WCI  31
RICE LAKE      LGT RAIN  37  35  94 E13G20    29.92F WCI  28
LADYSMITH      CLOUDY    36  30  79 E9        29.98F WCI  29
EAU CLAIRE     RAIN      37  36  93 E15       29.89F WCI  28
MENOMONIE      LGT RAIN  38  37  97 E14       29.89F WCI  29
NEW RICHMOND   LGT RAIN  38  38  98 E13G18    29.84F WCI  30
OSCEOLA        CLOUDY    40  39  97 E15G22    29.87F FOG     WCI  31
$$

WIZ003>005-009-010-017-018-241300-
NORTH CENTRAL WISCONSIN

CITY           SKY/WX    TMP DP  RH WIND       PRES   REMARKS
WOODRUFF       FLURRIES  37  34  91 E8        29.99F WCI  30
RHINELANDER    CLOUDY    33  31  92 E9        30.01S WCI  25
6HR MIN TEMP:  32; 6HR MAX TEMP:  40; 6HR PCP:  0.04;

EAGLE RIVER    FLURRIES  33  29  84 E8        30.01F WCI  27
LAND O LAKES   LGT SNOW  36  30  79 SE8       30.03S WCI  29
PHILLIPS       CLOUDY    34  31  90 E7        29.97F WCI  28
TOMAHAWK       CLOUDY    33  31  92 CALM      29.99F
MEDFORD        CLOUDY    36  23  60 SE10      29.97S WCI  28
MERRILL        CLOUDY    37  24  60 SE7       29.99F WCI  32
$$

WIZ029-030-035-036-043>047-241300-
CENTRAL WISCONSIN

CITY           SKY/WX    TMP DP  RH WIND       PRES   REMARKS
WAUSAU         CLOUDY    39  19  44 SE9       29.98F WCI  33
6HR MIN TEMP:  39; 6HR MAX TEMP:  40; 6HR PCP: TRACE;

MOSINEE        CLOUDY    37  23  56 SE8       30.00F WCI  31
MARSHFIELD     LGT RAIN  36  32  85 E16       29.97F WCI  26
6HR MIN TEMP:  34; 6HR MAX TEMP:  38; 6HR PCP:  0.01;

STEVENS POINT  LGT RAIN  34  29  82 E8        30.00F WCI  27
WAUPACA        RAIN      39  28  65 E6        30.02F WCI  35
WAUTOMA        NOT AVBL
WISC RAPIDS    LGT RAIN  36  33  89 E9        29.98F WCI  29
6HR MIN TEMP:  34; 6HR MAX TEMP:  37; 6HR PCP:  0.12;

CAMP DOUGLAS   NOT AVBL
$$

WIZ011>013-019>022-031-037>040-048>050-241300-
NORTHEAST WISCONSIN

CITY           SKY/WX    TMP DP  RH WIND       PRES   REMARKS
ANTIGO         CLOUDY    36  19  49 E13       30.01F WCI  28
STURGEON BAY   CLOUDY    37  23  56 E12       30.07F WCI  30
6HR MIN TEMP:  37; 6HR MAX TEMP:  39;

GREEN BAY      CLOUDY    41  26  55 E5        30.05F
6HR MIN TEMP:  40; 6HR MAX TEMP:  42;

MANITOWOC      NOT AVBL
APPLETON       LGT RAIN  39  25  56 E6        30.03F WCI  35
CLINTONVILLE   CLOUDY    39  23  52 E6        30.03F WCI  35
OSHKOSH        CLOUDY    42  32  67 SE7       30.02S
6HR MIN TEMP:  39; 6HR MAX TEMP:  42; 6HR PCP: TRACE;

$$

WIZ032>034-041-042-053>061-241300-
SOUTHWEST WISCONSIN

CITY           SKY/WX    TMP DP  RH WIND       PRES   REMARKS
LA CROSSE      RAIN      40  36  86 SE8       29.90S WCI  34
6HR MIN TEMP:  40; 6HR MAX TEMP:  43; 6HR PCP:  0.31;

SPARTA         RAIN      37  36  96 E8        29.92S WCI  31
VIROQUA        CLOUDY    36  36  99 E17G24    29.87S WCI  26
BOSCOBEL       LGT RAIN  40  35  83 NE6       29.91S
6HR MIN TEMP:  40; 6HR MAX TEMP:  45; 6HR PCP:  0.05;

PRAIRIE DU CHI CLOUDY    41  35  77 E10G16    29.85F
PLATTEVILLE    MOCLDY    41  34  76 E18       29.88F
$$

WIZ056-057-062-063-064-067-068-241300-
SOUTH CENTRAL WISCONSIN

CITY           SKY/WX    TMP DP  RH WIND       PRES   REMARKS
BARABOO/DELLS  CLOUDY    36  33  90 E8        29.95F WCI  29
LONE ROCK      NOT AVBL
WATERTOWN      CLOUDY    37  34  86 E13G20    29.98F WCI  29
MADISON        CLOUDY    40  35  83 SE13      29.97F WCI  32
6HR MIN TEMP:  35; 6HR MAX TEMP:  40; 6HR PCP:  0.08;

MIDDLETON      CLOUDY    41  35  79 SE13      29.95F
MONROE         CLOUDY    40  38  93 E13G18    29.92F WCI  32
JANESVILLE     CLOUDY    43  32  65 E12G17    29.95F
$$

WIZ051-052-058>065-066-070>072-241300-
SOUTHEAST WISCONSIN

CITY           SKY/WX    TMP DP  RH WIND       PRES   REMARKS
MILWAUKEE      CLOUDY    37  32  82 NE8       30.05F WCI  31
6HR MIN TEMP:  37; 6HR MAX TEMP:  39; 6HR PCP:  0.04;

WAUKESHA       CLOUDY    36  34  93 E9        30.03F WCI  29
MILWAUKEE/TIMM DRIZZLE   36  32  87 E5        30.06R WCI  32
RACINE         CLOUDY    39  33  79 E8        30.05F WCI  33
6HR MIN TEMP:  36; 6HR MAX TEMP:  39; 6HR PCP:  0.11;

BURLINGTON     CLOUDY    38  32  79 E5        30.01F WCI  35
KENOSHA        CLOUDY    39  34  82 E12       30.03F WCI  32
6HR MIN TEMP:  36; 6HR MAX TEMP:  39; 6HR PCP:  0.04;

FOND DU LAC    LGT RAIN  40  33  76 SE10      30.02S WCI  33
6HR MIN TEMP:  38; 6HR MAX TEMP:  41; 6HR PCP:  0.03;

SHEBOYGAN      CLOUDY    42  31  64 E6        30.05F
6HR MIN TEMP:  38; 6HR MAX TEMP:  42; 6HR PCP: TRACE;

WEST BEND      LGT RAIN  36  32  87 SE5       30.04S WCI  32
JUNEAU         DRIZZLE   37  33  84 E12       30.02F WCI  30
$$

LSZ147-162-241300-
LAKE SUPERIOR

STATION/POSITION TIME  TEMP    WIND        PRES    WAVE
                       AIR SEA DIR/SP/G            HT/PER
                 (UTC) (F)     (DEG/KT/KT) (MB)    (FT/S)
DEVILS ISLAND    1100   36     120/  5/  6 1017.7F
PORT WING        1140   39     120/  6/ 12 1015.2F
SAXON HARBOR     1100           CALM  /  3 1016.3F
$$

LMZ867-665-643>646-241300-
LAKE MICHIGAN

STATION/POSITION TIME  TEMP    WIND        PRES    WAVE
                       AIR SEA DIR/SP/G            HT/PER
                 (UTC) (F)     (DEG/KT/KT) (MB)    (FT/S)
NORTHPORT PIER   1100   35     100/  9/ 10 1019.3F
SISTER BAY       1053   37     110/ 10/ 16   N/A
KEWAUNEE LAKESHO 1100   37      40/  5/  7 1019.1F
SHEBOYGAN LAKESH 1100   42     110/  3/  4 1018.9F
PORT WASHINGTON  1140   37      70/  6/  7 1018.3F
MILWAUKEE LAKESH 1100   36      50/ 11/ 12   N/A
KENOSHA   LAKESH 1100   39      50/  6/  9   N/A
$$

TC  - TEMPERATURE IN CELSIUS
VSB - VISIBILITY IN STATUTE MILES
WCI - WIND CHILL INDEX
HX  - HEAT INDEX




USA.gov is the U.S. government's official web portal to all federal, state and local government web resources and services.